Regional Weather Roundup
Issued by NWS

Home | Current Version | Previous Version | Graphics & Text | Print | Product List | Glossary On
Versions: 1 2 3 4 5 6 7 8 9 10 11 12 13 14 15 16 17 18 19 20 21 22 23 24 25 26 27 28 29 30 31 32 33 34 35 36 37 38 39 40 41 42 43 44 45 46 47 48 49 50
000
ASUS43 KLOT 211358
RWRIL

ILLINOIS REGIONAL WEATHER ROUNDUP
NATIONAL WEATHER SERVICE CHICAGO/ROMEOVILLE IL
900 AM CDT SUN SEP 21 2014

NOTE: "FAIR" INDICATES FEW OR NO CLOUDS BELOW 12,000 FEET WITH NO
SIGNIFICANT WEATHER AND/OR OBSTRUCTIONS TO VISIBILITY.

* THESE STATIONS ARE NOT UNDER NWS QUALITY CONTROL. THEY ALSO MAY NOT
  REPORT WEATHER SUCH AS PRECIPITATION OR FOG.

ILZ001-002-007-009-015-016-024-211500-
NORTHWEST ILLINOIS

CITY           SKY/WX    TMP DP  RH WIND       PRES   REMARKS
MOLINE         SUNNY     61  50  67 NW17G32   29.95R
$$

ILZ003-004-008-010-011-017-018-211500-
NORTH CENTRAL ILLINOIS

CITY           SKY/WX    TMP DP  RH WIND       PRES   REMARKS
ROCKFORD       NOT AVBL
$$

ILZ005-006-012>014-019>023-211500-
NORTHEAST ILLINOIS

CITY           SKY/WX    TMP DP  RH WIND       PRES   REMARKS
CHICAGO-OHARE  PTSUNNY   60  50  69 NW16G24   29.82R
CHICAGO-MIDWAY PTSUNNY   62  52  69 W18G26    29.83R
AURORA         CLOUDY    59  51  75 W13G23    29.86R
WAUKEGAN       CLOUDY    58  50  75 VRB7G22   29.80R
DUPAGE AIRPORT PTSUNNY   59  51  75 W17       29.84R
WHEELING       CLOUDY    60  50  69 W15G23    29.83R
NORTHERLY ISL    N/A     61  49  64 W12         N/A
$$

LMZ740>746-211500-
SOUTHERN LAKE MICHIGAN

STATION/POSITION SKY/WX   TEMP    WIND        PRES    VSBY  WAVE
                          AIR SEA DIR/SP/G                  HT/PER
                          (F)     (DEG/KT/KT) (MB)    (MI)  (FT/S)
SOUTHERN BUOY              60 63  270/ 25/ 29 1006.5R         5/ 5
WAUKEGAN HARBOR            58     280/ 12/ 24   N/A
HARRISON CRIB              59     280/ 23/ 29   N/A
BURNHAM HARBOR             60     280/ 13/ 14   N/A
CALUMET HARBOR             61     270/  7/ 17 1008.5R
MICHIGAN CITY              61     250/ 29/ 33   N/A
MICHIGAN CITY 6N           62 65  280/ 21/ 29   N/A           6/ 5
ST. JOSEPH                 61 65  270/ 23/ 29   N/A           9/ 6
$$

ILZ025>027-034>036-040-047-049-050-058-095>099-211500-
WEST-CENTRAL ILLINOIS

CITY           SKY/WX    TMP DP  RH WIND       PRES   REMARKS
$$

ILZ028>032-037-038-041>044-048-051>054-059>061-211500-
CENTRAL ILLINOIS

CITY           SKY/WX    TMP DP  RH WIND       PRES   REMARKS
PEORIA         NOT AVBL
SPRINGFIELD    SUNNY     64  55  72 W13       29.98S
TAYLORVILLE    NOT AVBL
$$

ILZ033-039-045-046-055>057-062-063-211500-
EAST-CENTRAL ILLINOIS

CITY           SKY/WX    TMP DP  RH WIND       PRES   REMARKS
CHAMPAIGN      SUNNY     62  55  77 W14       29.94S
$$

ILZ079-100>102-211500-
SOUTHWEST ILLINOIS

CITY           SKY/WX    TMP DP  RH WIND       PRES   REMARKS
ALTON          SUNNY     64  55  72 W9        30.03R
$$

ILZ064>066-069>071-074>076-080>082-084>086-088>090-092>094-211500-
SOUTH-CENTRAL ILLINOIS

CITY           SKY/WX    TMP DP  RH WIND       PRES   REMARKS
CARBONDALE     MOSUNNY   72  65  78 N12       30.00R
$$

ILZ067-068-072-073-078-083-087-091-211500-
SOUTHEAST ILLINOIS

CITY           SKY/WX    TMP DP  RH WIND       PRES   REMARKS
LAWRENCEVILLE  SUNNY     68  60  75 NW13      29.96R
$$

ABBREVIATIONS USED IN REMARKS
   TC - TEMPERATURE IN CELSIUS
  WCI - WIND CHILL INDEX
   HX - HEAT INDEX
  VSB - VISIBILITY
$$




USA.gov is the U.S. government's official web portal to all federal, state and local government web resources and services.